Hourly Weather Bolshie Memi

Today, 15 June, Tuesday

Time Temperature Precipitation Wind Pressure Humidity
00:00 +19°C° 0 mm 1 mps 749 mmHg 88%
01:00 +19°C° 0 mm 1 mps 749 mmHg 89%
02:00 +18°C° 0 mm 1 mps 749 mmHg 89%
03:00 +16°C° 0 mm 0 mps 750 mmHg 88%
04:00 +17°C° 0 mm 0 mps 750 mmHg 86%
05:00 +18°C° 0 mm 0 mps 750 mmHg 84%
06:00 +19°C° 0 mm 0 mps 750 mmHg 81%
07:00 +22°C° 0.1 mm 1 mps 750 mmHg 80%
08:00 +23°C° 0.1 mm 1 mps 750 mmHg 78%
09:00 +23°C° 0 mm 2 mps 750 mmHg 77%
10:00 +23°C° 0.3 mm 2 mps 750 mmHg 77%
11:00 +23°C° 0.3 mm 1 mps 750 mmHg 76%
12:00 +23°C° 0.3 mm 1 mps 750 mmHg 76%
13:00 +24°C° 0.1 mm 1 mps 750 mmHg 73%
14:00 +24°C° 0.1 mm 1 mps 749 mmHg 71%
15:00 +25°C° 0.1 mm 1 mps 749 mmHg 68%
16:00 +25°C° 0 mm 1 mps 749 mmHg 69%
17:00 +25°C° 0 mm 1 mps 749 mmHg 70%
18:00 +26°C° 0 mm 1 mps 748 mmHg 71%
19:00 +24°C° 0.8 mm 2 mps 748 mmHg 77%
20:00 +21°C° 0.8 mm 2 mps 748 mmHg 83%
21:00 +20°C° 0.8 mm 3 mps 748 mmHg 88%
22:00 +20°C° 0.5 mm 2 mps 748 mmHg 88%
23:00 +19°C° 0.5 mm 2 mps 747 mmHg 87%

Tomorrow, 16 June, Wednesday

Time Temperature Precipitation Wind Pressure Humidity
00:00 +19°C° 0.5 mm 2 mps 747 mmHg 87%
01:00 +19°C° 0.1 mm 2 mps 747 mmHg 88%
02:00 +18°C° 0.1 mm 3 mps 746 mmHg 89%
03:00 +18°C° 0.1 mm 3 mps 746 mmHg 90%
04:00 +19°C° 0 mm 3 mps 746 mmHg 89%
05:00 +20°C° 0 mm 4 mps 745 mmHg 88%
06:00 +21°C° 0 mm 4 mps 745 mmHg 87%
07:00 +22°C° 0 mm 4 mps 745 mmHg 79%
08:00 +23°C° 0 mm 4 mps 745 mmHg 72%
09:00 +26°C° 0 mm 4 mps 744 mmHg 64%
10:00 +26°C° 0 mm 4 mps 744 mmHg 61%
11:00 +27°C° 0 mm 4 mps 744 mmHg 58%
12:00 +28°C° 0 mm 3 mps 744 mmHg 55%
13:00 +28°C° 0 mm 3 mps 744 mmHg 56%
14:00 +28°C° 0 mm 3 mps 743 mmHg 57%
15:00 +28°C° 0 mm 3 mps 743 mmHg 57%
16:00 +28°C° 0 mm 3 mps 743 mmHg 61%
17:00 +28°C° 0 mm 2 mps 743 mmHg 66%
18:00 +27°C° 0 mm 2 mps 743 mmHg 70%
19:00 +24°C° 0.5 mm 2 mps 744 mmHg 77%
20:00 +20°C° 0.5 mm 3 mps 744 mmHg 84%
21:00 +17°C° 0.5 mm 3 mps 745 mmHg 92%
22:00 +17°C° 0.1 mm 4 mps 745 mmHg 93%
23:00 +17°C° 0.1 mm 4 mps 746 mmHg 94%

Day after tomorrow, 17 June, Thursday

Time Temperature Precipitation Wind Pressure Humidity
00:00 +15°C° 0.1 mm 4 mps 747 mmHg 95%
01:00 +15°C° 0 mm 4 mps 747 mmHg 94%
02:00 +14°C° 0 mm 4 mps 748 mmHg 94%
03:00 +14°C° 0 mm 4 mps 748 mmHg 94%
04:00 +14°C° 0 mm 4 mps 749 mmHg 89%
05:00 +15°C° 0 mm 4 mps 750 mmHg 85%
06:00 +15°C° 0 mm 4 mps 750 mmHg 81%
07:00 +17°C° 0 mm 4 mps 751 mmHg 74%
08:00 +18°C° 0 mm 4 mps 751 mmHg 66%
09:00 +19°C° 0 mm 4 mps 751 mmHg 59%
10:00 +20°C° 0 mm 4 mps 751 mmHg 55%
11:00 +21°C° 0 mm 5 mps 752 mmHg 52%
12:00 +21°C° 0 mm 5 mps 752 mmHg 49%
13:00 +22°C° 0 mm 5 mps 752 mmHg 48%
14:00 +22°C° 0 mm 5 mps 752 mmHg 47%
15:00 +23°C° 0 mm 5 mps 752 mmHg 46%
16:00 +22°C° 0 mm 4 mps 752 mmHg 53%
17:00 +21°C° 0 mm 3 mps 752 mmHg 59%
18:00 +20°C° 0 mm 3 mps 752 mmHg 65%
19:00 +19°C° 0 mm 3 mps 753 mmHg 66%
20:00 +18°C° 0 mm 2 mps 753 mmHg 67%
21:00 +16°C° 0 mm 2 mps 753 mmHg 68%
22:00 +16°C° 0 mm 2 mps 754 mmHg 69%
23:00 +15°C° 0 mm 2 mps 754 mmHg 70%

18 June, Friday

Time Temperature Precipitation Wind Pressure Humidity
00:00 +14°C° 0 mm 2 mps 754 mmHg 71%
01:00 +14°C° 0 mm 2 mps 755 mmHg 73%
02:00 +13°C° 0 mm 2 mps 755 mmHg 74%
03:00 +13°C° 0 mm 2 mps 756 mmHg 75%
04:00 +12°C° 0 mm 3 mps 756 mmHg 72%
05:00 +13°C° 0 mm 3 mps 756 mmHg 69%
06:00 +14°C° 0 mm 3 mps 757 mmHg 66%
07:00 +16°C° 0 mm 3 mps 757 mmHg 61%
08:00 +17°C° 0 mm 4 mps 757 mmHg 56%
09:00 +19°C° 0 mm 4 mps 758 mmHg 51%
10:00 +19°C° 0 mm 4 mps 758 mmHg 48%
11:00 +20°C° 0 mm 4 mps 758 mmHg 46%
12:00 +21°C° 0 mm 4 mps 758 mmHg 44%
13:00 +21°C° 0 mm 4 mps 758 mmHg 44%
14:00 +22°C° 0 mm 3 mps 758 mmHg 43%
15:00 +22°C° 0 mm 3 mps 758 mmHg 43%
16:00 +23°C° 0 mm 2 mps 758 mmHg 47%
17:00 +23°C° 0 mm 2 mps 758 mmHg 52%
18:00 +22°C° 0 mm 1 mps 758 mmHg 56%
19:00 +21°C° 0 mm 1 mps 758 mmHg 59%
20:00 +19°C° 0 mm 1 mps 758 mmHg 61%
21:00 +16°C° 0 mm 1 mps 758 mmHg 63%
22:00 +16°C° 0 mm 1 mps 758 mmHg 66%
23:00 +15°C° 0 mm 2 mps 758 mmHg 68%

19 June, Saturday

Time Temperature Precipitation Wind Pressure Humidity
00:00 +15°C° 0 mm 2 mps 758 mmHg 71%
01:00 +14°C° 0 mm 2 mps 758 mmHg 75%
02:00 +14°C° 0 mm 2 mps 758 mmHg 79%
03:00 +13°C° 0 mm 3 mps 758 mmHg 83%
04:00 +14°C° 0 mm 3 mps 758 mmHg 81%
05:00 +16°C° 0 mm 3 mps 758 mmHg 80%
06:00 +18°C° 0 mm 4 mps 758 mmHg 79%
07:00 +19°C° 0 mm 4 mps 758 mmHg 74%
08:00 +21°C° 0 mm 5 mps 758 mmHg 70%
09:00 +23°C° 0 mm 5 mps 758 mmHg 65%
10:00 +24°C° 0 mm 6 mps 757 mmHg 62%
11:00 +26°C° 0 mm 6 mps 757 mmHg 60%
12:00 +27°C° 0 mm 6 mps 756 mmHg 57%
13:00 +27°C° 0 mm 6 mps 756 mmHg 58%
14:00 +27°C° 0 mm 6 mps 756 mmHg 59%
15:00 +28°C° 0 mm 6 mps 756 mmHg 60%
16:00 +27°C° 0 mm 6 mps 755 mmHg 63%
17:00 +26°C° 0 mm 6 mps 755 mmHg 67%
18:00 +26°C° 0 mm 6 mps 755 mmHg 71%
19:00 +24°C° 0 mm 6 mps 755 mmHg 75%
20:00 +22°C° 0 mm 5 mps 755 mmHg 79%
21:00 +21°C° 0 mm 5 mps 755 mmHg 83%
22:00 +20°C° 0 mm 4 mps 755 mmHg 86%
23:00 +20°C° 0 mm 4 mps 755 mmHg 88%

20 June, Sunday

Time Temperature Precipitation Wind Pressure Humidity
00:00 +19°C° 0 mm 4 mps 755 mmHg 90%
01:00 +19°C° 0 mm 3 mps 755 mmHg 91%
02:00 +18°C° 0 mm 3 mps 755 mmHg 92%
03:00 +18°C° 0 mm 3 mps 755 mmHg 92%
04:00 +19°C° 0 mm 3 mps 755 mmHg 89%
05:00 +20°C° 0 mm 3 mps 755 mmHg 85%
06:00 +21°C° 0 mm 3 mps 756 mmHg 81%
07:00 +22°C° 0 mm 3 mps 756 mmHg 76%
08:00 +25°C° 0 mm 4 mps 756 mmHg 71%
09:00 +26°C° 0 mm 4 mps 756 mmHg 67%
10:00 +27°C° 0 mm 4 mps 756 mmHg 63%
11:00 +28°C° 0 mm 4 mps 755 mmHg 60%
12:00 +29°C° 0 mm 4 mps 755 mmHg 57%
13:00 +29°C° 0.1 mm 4 mps 755 mmHg 57%
14:00 +29°C° 0.1 mm 4 mps 755 mmHg 57%
15:00 +29°C° 0.1 mm 4 mps 755 mmHg 56%
16:00 +28°C° 0.4 mm 4 mps 755 mmHg 61%
17:00 +27°C° 0.4 mm 3 mps 755 mmHg 67%
18:00 +27°C° 0.4 mm 3 mps 754 mmHg 72%
19:00 +25°C° 0.2 mm 2 mps 755 mmHg 76%
20:00 +24°C° 0.2 mm 2 mps 755 mmHg 79%
21:00 +22°C° 0.2 mm 1 mps 755 mmHg 83%
22:00 +22°C° 0.1 mm 1 mps 755 mmHg 85%
23:00 +21°C° 0.1 mm 1 mps 754 mmHg 86%
Show more